When you browse on this site, cookies collect data to enhance your experience and personalize the content and advertising you see.
Visit our Privacy Policy to learn more. By continuing to use the site, you agree to this use of cookies and data.

Hourly Weather Mingachevir

Today, 10 August, Monday

Time Temperature Precipitation Wind Pressure Humidity
00:00 +27°C° 0 mm 4 mps 747 mmHg 49%
01:00 +26°C° 0 mm 3 mps 747 mmHg 51%
02:00 +26°C° 0 mm 3 mps 747 mmHg 53%
03:00 +25°C° 0 mm 3 mps 747 mmHg 55%
04:00 +25°C° 0 mm 3 mps 747 mmHg 56%
05:00 +25°C° 0 mm 3 mps 748 mmHg 57%
06:00 +25°C° 0 mm 3 mps 748 mmHg 59%
07:00 +27°C° 0 mm 3 mps 748 mmHg 53%
08:00 +30°C° 0 mm 4 mps 748 mmHg 47%
09:00 +33°C° 0 mm 5 mps 748 mmHg 41%
10:00 +34°C° 0 mm 5 mps 748 mmHg 37%
11:00 +35°C° 0 mm 5 mps 748 mmHg 33%
12:00 +38°C° 0 mm 6 mps 748 mmHg 30%
13:00 +38°C° 0 mm 6 mps 747 mmHg 29%
14:00 +39°C° 0 mm 6 mps 747 mmHg 28%
15:00 +39°C° 0 mm 6 mps 746 mmHg 27%
16:00 +38°C° 0 mm 7 mps 746 mmHg 30%
17:00 +36°C° 0 mm 7 mps 747 mmHg 33%
18:00 +35°C° 0 mm 7 mps 747 mmHg 36%
19:00 +33°C° 0 mm 7 mps 747 mmHg 41%
20:00 +30°C° 0 mm 7 mps 747 mmHg 46%
21:00 +28°C° 0 mm 6 mps 748 mmHg 51%
22:00 +27°C° 0 mm 6 mps 748 mmHg 55%
23:00 +27°C° 0 mm 5 mps 748 mmHg 59%

Tomorrow, 11 August, Tuesday

Time Temperature Precipitation Wind Pressure Humidity
00:00 +26°C° 0 mm 4 mps 748 mmHg 63%
01:00 +25°C° 0 mm 4 mps 748 mmHg 65%
02:00 +25°C° 0 mm 4 mps 748 mmHg 67%
03:00 +24°C° 0 mm 3 mps 748 mmHg 68%
04:00 +25°C° 0 mm 3 mps 749 mmHg 68%
05:00 +25°C° 0 mm 3 mps 749 mmHg 67%
06:00 +25°C° 0 mm 3 mps 749 mmHg 66%
07:00 +27°C° 0 mm 3 mps 749 mmHg 59%
08:00 +29°C° 0 mm 4 mps 749 mmHg 52%
09:00 +30°C° 0 mm 4 mps 749 mmHg 45%
10:00 +32°C° 0 mm 5 mps 748 mmHg 41%
11:00 +34°C° 0 mm 5 mps 748 mmHg 36%
12:00 +35°C° 0 mm 5 mps 748 mmHg 32%
13:00 +35°C° 0 mm 5 mps 747 mmHg 31%
14:00 +36°C° 0 mm 5 mps 747 mmHg 29%
15:00 +36°C° 0 mm 5 mps 746 mmHg 28%
16:00 +36°C° 0 mm 4 mps 746 mmHg 29%
17:00 +35°C° 0 mm 4 mps 746 mmHg 30%
18:00 +35°C° 0 mm 3 mps 747 mmHg 31%
19:00 +33°C° 0 mm 3 mps 747 mmHg 34%
20:00 +31°C° 0 mm 3 mps 748 mmHg 38%
21:00 +29°C° 0 mm 3 mps 748 mmHg 41%
22:00 +28°C° 0 mm 3 mps 748 mmHg 44%
23:00 +27°C° 0 mm 3 mps 748 mmHg 47%

Day after tomorrow, 12 August, Wednesday

Time Temperature Precipitation Wind Pressure Humidity
00:00 +26°C° 0 mm 3 mps 749 mmHg 50%
01:00 +26°C° 0 mm 3 mps 749 mmHg 53%
02:00 +25°C° 0 mm 2 mps 748 mmHg 57%
03:00 +25°C° 0 mm 2 mps 748 mmHg 60%
04:00 +25°C° 0 mm 2 mps 749 mmHg 59%
05:00 +25°C° 0 mm 2 mps 749 mmHg 59%
06:00 +25°C° 0 mm 2 mps 749 mmHg 58%
07:00 +27°C° 0 mm 2 mps 749 mmHg 51%
08:00 +30°C° 0 mm 3 mps 749 mmHg 43%
09:00 +33°C° 0 mm 3 mps 749 mmHg 35%
10:00 +34°C° 0 mm 3 mps 749 mmHg 32%
11:00 +35°C° 0 mm 3 mps 749 mmHg 29%
12:00 +36°C° 0 mm 3 mps 749 mmHg 26%
13:00 +37°C° 0 mm 3 mps 748 mmHg 25%
14:00 +37°C° 0 mm 4 mps 748 mmHg 25%
15:00 +38°C° 0 mm 4 mps 748 mmHg 24%
16:00 +37°C° 0 mm 4 mps 748 mmHg 25%
17:00 +36°C° 0 mm 4 mps 748 mmHg 27%
18:00 +36°C° 0 mm 4 mps 748 mmHg 28%
19:00 +34°C° 0 mm 4 mps 748 mmHg 31%
20:00 +32°C° 0 mm 5 mps 749 mmHg 35%
21:00 +29°C° 0 mm 6 mps 749 mmHg 39%
22:00 +28°C° 0 mm 6 mps 749 mmHg 42%
23:00 +27°C° 0 mm 5 mps 749 mmHg 45%

13 August, Thursday

Time Temperature Precipitation Wind Pressure Humidity
00:00 +26°C° 0 mm 5 mps 749 mmHg 48%
01:00 +26°C° 0 mm 4 mps 749 mmHg 50%
02:00 +25°C° 0 mm 4 mps 749 mmHg 53%
03:00 +25°C° 0 mm 3 mps 749 mmHg 55%
04:00 +25°C° 0 mm 3 mps 749 mmHg 54%
05:00 +25°C° 0 mm 2 mps 749 mmHg 54%
06:00 +25°C° 0 mm 1 mps 749 mmHg 53%
07:00 +27°C° 0 mm 2 mps 749 mmHg 47%
08:00 +29°C° 0 mm 2 mps 748 mmHg 40%
09:00 +31°C° 0 mm 2 mps 748 mmHg 34%
10:00 +32°C° 0 mm 2 mps 748 mmHg 32%
11:00 +34°C° 0 mm 2 mps 748 mmHg 30%
12:00 +34°C° 0 mm 1 mps 747 mmHg 28%
13:00 +34°C° 0 mm 1 mps 747 mmHg 27%
14:00 +35°C° 0 mm 1 mps 746 mmHg 26%
15:00 +36°C° 0 mm 1 mps 746 mmHg 25%
16:00 +35°C° 0 mm 1 mps 746 mmHg 27%
17:00 +35°C° 0 mm 1 mps 746 mmHg 28%
18:00 +34°C° 0 mm 1 mps 746 mmHg 29%
19:00 +34°C° 0 mm 2 mps 746 mmHg 33%
20:00 +31°C° 0 mm 2 mps 747 mmHg 36%
21:00 +29°C° 0 mm 3 mps 748 mmHg 39%
22:00 +28°C° 0.1 mm 2 mps 748 mmHg 43%
23:00 +28°C° 0.1 mm 2 mps 747 mmHg 47%

14 August, Friday

Time Temperature Precipitation Wind Pressure Humidity
00:00 +27°C° 0.1 mm 1 mps 747 mmHg 50%
01:00 +26°C° 0 mm 1 mps 747 mmHg 51%
02:00 +26°C° 0 mm 1 mps 747 mmHg 52%
03:00 +26°C° 0 mm 1 mps 747 mmHg 53%
04:00 +26°C° 0 mm 1 mps 747 mmHg 55%
05:00 +26°C° 0 mm 2 mps 747 mmHg 57%
06:00 +26°C° 0 mm 2 mps 747 mmHg 60%
07:00 +28°C° 0 mm 2 mps 747 mmHg 54%
08:00 +29°C° 0 mm 3 mps 747 mmHg 48%
09:00 +31°C° 0 mm 3 mps 746 mmHg 42%
10:00 +33°C° 0 mm 3 mps 746 mmHg 38%
11:00 +35°C° 0 mm 2 mps 746 mmHg 35%
12:00 +36°C° 0 mm 2 mps 745 mmHg 31%
13:00 +36°C° 0 mm 2 mps 745 mmHg 30%
14:00 +37°C° 0 mm 2 mps 745 mmHg 29%
15:00 +37°C° 0 mm 2 mps 744 mmHg 28%
16:00 +36°C° 0 mm 2 mps 744 mmHg 31%
17:00 +35°C° 0 mm 2 mps 744 mmHg 33%
18:00 +34°C° 0 mm 2 mps 744 mmHg 36%
19:00 +32°C° 0.1 mm 2 mps 745 mmHg 38%
20:00 +31°C° 0.1 mm 3 mps 745 mmHg 40%
21:00 +30°C° 0.1 mm 4 mps 746 mmHg 42%
22:00 +29°C° 0 mm 4 mps 746 mmHg 42%
23:00 +29°C° 0 mm 4 mps 746 mmHg 43%

15 August, Saturday

Time Temperature Precipitation Wind Pressure Humidity
00:00 +28°C° 0 mm 4 mps 747 mmHg 43%
01:00 +27°C° 0.3 mm 5 mps 747 mmHg 52%
02:00 +25°C° 0.3 mm 5 mps 747 mmHg 61%
03:00 +23°C° 0.3 mm 5 mps 747 mmHg 70%
04:00 +23°C° 0.1 mm 4 mps 748 mmHg 69%
05:00 +24°C° 0.1 mm 2 mps 748 mmHg 68%
06:00 +25°C° 0.1 mm 1 mps 748 mmHg 66%
07:00 +25°C° 0.1 mm 1 mps 748 mmHg 65%
08:00 +25°C° 0.1 mm 2 mps 748 mmHg 63%
09:00 +25°C° 0.1 mm 3 mps 749 mmHg 61%
10:00 +26°C° 0.1 mm 3 mps 749 mmHg 59%
11:00 +27°C° 0.1 mm 2 mps 749 mmHg 58%
12:00 +27°C° 0.1 mm 2 mps 749 mmHg 56%
13:00 +27°C° 0.2 mm 3 mps 749 mmHg 58%
14:00 +26°C° 0.2 mm 4 mps 749 mmHg 61%
15:00 +26°C° 0.2 mm 5 mps 749 mmHg 63%
16:00 +26°C° 0 mm 5 mps 749 mmHg 61%
17:00 +26°C° 0 mm 5 mps 749 mmHg 60%
18:00 +26°C° 0 mm 5 mps 749 mmHg 58%
19:00 +26°C° 0 mm 5 mps 750 mmHg 58%
20:00 +25°C° 0 mm 5 mps 750 mmHg 58%
21:00 +25°C° 0 mm 5 mps 751 mmHg 59%
22:00 +23°C° 0 mm 5 mps 750 mmHg 58%
23:00 +23°C° 0 mm 6 mps 750 mmHg 58%
Show more